Weather History for Punta Gorda, FL

Change the Weather History Date:

Sunday, March 10, 2013

  Actual Average Record
Temperature  
Mean Temperature 68 °F -  
Max Temperature 81 °F 77 °F 87 °F (1997)
Min Temperature 54 °F 54 °F 46 °F (2004)
Cooling Degree Days 2    
Growing Degree Days 18 (Base 50)    
Moisture  
Dew Point 52 °F    
Average Humidity 60    
Maximum Humidity 86    
Minimum Humidity 35    
Precipitation  
Precipitation 0.00 in - - ()
Sea Level Pressure  
Sea Level Pressure 30.13 in    
Wind  
Wind Speed 8 mph (East)    
Max Wind Speed 18 mph    
Max Gust Speed 22 mph    
Visibility 10 miles    
Events      
Averages and records for this station are not official NWS values.
T = Trace of Precipitation, MM = Missing Value Source: NWS Daily Summary

Daily Weather History Graph

Daily Weather History Graph

Search for Another Location

Airport:

Trip Planner

Search our weather history database for the weather conditions in past years. The results will help you decide how hot, cold, wet, or windy it might be!

Date:

Astronomy

Mar. 10, 2013 Rise Set
Actual Time 7:42 AM EDT 7:34 PM EDT
Civil Twilight 7:19 AM EDT 7:57 PM EDT
Nautical Twilight 6:52 AM EDT 8:24 PM EDT
Astronomical Twilight 6:25 AM EDT 8:51 PM EDT
Moon 6:38 AM EDT (3/10) 6:41 PM EDT (3/10)
Length of Visible Light 12h 38m
Length of Day
11h 51m
Waning Crescent, 2% of the Moon is Illuminated
Mar 10
Waning Crescent
Mar 11
New
Mar 19
First Quarter
Mar 27
Full
Apr 3
Last Quarter

Hourly Weather History & Observations

Time (EDT) Temp. Dew Point Humidity Pressure Visibility Wind Dir Wind Speed Gust Speed Precip Events Conditions
12:53 AM 59.0 °F 50.0 °F 72% 30.18 in 10.0 mi ENE 6.9 mph - N/A   Clear
1:53 AM 57.9 °F 50.0 °F 75% 30.15 in 10.0 mi ENE 6.9 mph - N/A   Clear
3:53 AM 57.0 °F 50.0 °F 77% 30.15 in 10.0 mi ENE 8.1 mph - N/A   Clear
4:53 AM 54.0 °F 50.0 °F 86% 30.14 in 10.0 mi ENE 5.8 mph - N/A   Clear
5:53 AM 54.0 °F 50.0 °F 86% 30.15 in 10.0 mi ENE 4.6 mph - N/A   Clear
6:53 AM 55.0 °F 51.1 °F 86% 30.15 in 10.0 mi ENE 6.9 mph - N/A   Clear
8:53 AM 59.0 °F 52.0 °F 78% 30.17 in 10.0 mi East 4.6 mph - N/A   Clear
9:53 AM 66.9 °F 53.1 °F 61% 30.18 in 10.0 mi East 6.9 mph - N/A   Clear
10:53 AM 72.0 °F 52.0 °F 49% 30.17 in 10.0 mi ESE 11.5 mph 19.6 mph N/A   Clear
11:53 AM 75.0 °F 52.0 °F 44% 30.17 in 10.0 mi ESE 13.8 mph 18.4 mph N/A   Mostly Cloudy
12:53 PM 77.0 °F 51.1 °F 40% 30.13 in 10.0 mi ESE 17.3 mph 21.9 mph N/A   Partly Cloudy
1:53 PM 79.0 °F 51.1 °F 38% 30.11 in 10.0 mi SE 13.8 mph 21.9 mph N/A   Clear
2:53 PM 80.1 °F 51.1 °F 36% 30.10 in 10.0 mi SE 13.8 mph 18.4 mph N/A   Clear
3:53 PM 81.0 °F 52.0 °F 36% 30.08 in 10.0 mi ESE 18.4 mph 21.9 mph N/A   Clear
4:53 PM 81.0 °F 51.1 °F 35% 30.07 in 10.0 mi East 13.8 mph - N/A   Scattered Clouds
5:53 PM 79.0 °F 51.1 °F 38% 30.06 in 10.0 mi ESE 8.1 mph - N/A   Clear
6:53 PM 75.0 °F 51.1 °F 43% 30.07 in 10.0 mi East 10.4 mph - N/A   Clear
7:53 PM 71.1 °F 52.0 °F 51% 30.09 in 10.0 mi East 9.2 mph - N/A   Clear
8:53 PM 69.1 °F 53.1 °F 57% 30.11 in 10.0 mi ESE 8.1 mph - N/A   Clear
9:53 PM 66.9 °F 54.0 °F 63% 30.14 in 10.0 mi SE 4.6 mph - N/A   Overcast
10:53 PM 64.0 °F 55.0 °F 73% 30.14 in 10.0 mi ESE 8.1 mph - N/A   Clear
11:53 PM 62.1 °F 55.0 °F 78% 30.14 in 10.0 mi ESE 4.6 mph - N/A   Clear
12:53 AM 60.1 °F 54.0 °F 80% 30.12 in 10.0 mi East 4.6 mph - N/A   Clear